Погода в Тихорецке

Погода в Тихорецке : погода сейчас, прогноз погоды и архив. Всё, что Вы хотите узнать о погоде в Тихорецке!

Хотите узнать прогноз погоды в Тихорецке? Тогда Вам сюда: Погода в Тихорецке

Поиск расширенной информации на нашем сайте:

Другие новости

Новости СМИ2

Главная страница сайта

Новости сайта

03.07.2017

Напоминаем, что на нашем специализированном сайте Метеоцентр.Азия вы можете получить высокодетализированные автоматические прогнозы погоды по пунктам России, СНГ и мира в авиационном формате (включающие направление и скорость ветра, видимость, явления погоды, количество и форму облачности, нижнюю и верхнюю границу облачности).


Погода в Тихорецке - сегодня

Время (UTC), дата Ветер
(°,м/с) 
Видим.   Явления Облачность Т
(°С)
Тd
(°С)
f(%) Тe
(°С)
Pmin
(гПа)
dP
(гПа)
Po
(мм)
O2
(г/м3)
Тmin Tmax R s Состояние
почвы
21 18.05.18 тихо ()   10 км    10/10 1000 м 
[Sc]
+15.5 +11.6 78 +19  1015.6  -0.2  755  286           
00 19.05.18 тихо ()   10 км    ясно 
+12.9 +11.6 92 +16  1015.8  0.1  755  288           
03 19.05.18 тихо ()   10 км    ясно 
+13.1 +12.1 94 +17  1016  0.2  755  288  +12.1        сухая 
06 19.05.18 250 (З) 10 км    8/0 верхняя 
[Cs]
+22 +11.2 50 +25  1015.7  755  279           
09 19.05.18 210 (ЮЗ) 10 км    8/0 верхняя 
[Cc]
+25.5 +11.1 40 +28  1015.2  -0.4  755  276           
12 19.05.18 250 (З) 10 км    8/0 верхняя 
[Cc]
+27.5 +8.1 29 +28  1014.5  -0.6  754  275           
15 19.05.18 290 (З) 10 км    9/0 верхняя 
[Cs]
+25.9 +9.1 35 +26  1013.8  -0.6  754  276    +28.2       
18 19.05.18 350 (С) 10 км    10/0 верхняя 
[Cs]
+19.8 +11.5 59 +24  1015  1.1  754  281           
21 19.05.18 010 (С) 10 км    8/0 верхняя 
[Cc]
+17.8 +12.3 70 +23  1014.7  -0.4  754  283           
00 20.05.18 тихо ()   10 км    3/0 верхняя 
[Cc]
+15.5 +12.2 81 +20  1014.5  -0.3  754  285           
03 20.05.18 040 (СВ) н/о    н/о 
+17.6 +12 70 +22  1014.4  0.1  754  283  +15.1         
06 20.05.18 070 (В) 10 км    6/0 средняя 
[Ac trans]
+24.1 +12.5 48 +29  1014.1  0.1  754  277           
09 20.05.18 140 (ЮВ) 10 км    10/8 1000 м кучево-дожд., средняя, верхняя 
[Cb cap|Ac trans|Ci sp]
+27.4 +11.9 38 +31  1013.5  -0.5  753  274           
12 20.05.18 200 (Ю) 10 км    4/4 600 м 
[Cu hum]
+30.2 +10.7 30 +32  1012  -1.4  752  271           
15 20.05.18 180 (Ю) 10 км    10/6 1000 м кучево-дожд., верхняя 
[Cb calv|Ci ing]
+26.4 +12.3 42 +31  1011.8  -1.4  752  274    +30.6       
18 20.05.18 150 (ЮВ) 10 км    4/3 1000 м кучево-дожд., верхняя 
[Cb calv|Ci fib]
+20.2 +13.9 67 +27  1013.9  1.9  754  280           
21 20.05.18 160 (Ю) 10 км    ясно 
+17.1 +14 82 +26  1013  -0.9  753  283           
00 21.05.18 тихо ()   10 км    ясно 
+15.8 +14 89 +23  1013.1  0.1  753  284           
03 21.05.18 тихо ()   10 км    10/4 600 м кучево-дожд., средняя, верхняя 
[Cb cap|As trans|Ci fib]
+17.3 +14.7 85 +25  1014.4  1.3  754  283  +15.8        сухая 
06 21.05.18 340 (С) 10 км    10/0 средняя, верхняя 
[Sc|Ac lent|Cs]
+20.6 +15.5 73 +30  1015.8  1.5  755  280           
09 21.05.18 200 (Ю) 10 км    10/6 1000 м верхняя 
[Cu med, cong|Cc]
+26.1 +14.2 48 +33  1016.2  0.5  755  275           
12 21.05.18 220 (ЮЗ) 10 км    10/6 600 м кучево-дожд., средняя, верхняя 
[Cb cap|Ac cast|Cc]
+26.5 +12.7 42 +31  1015.8  -0.4  755  275           
15 21.05.18 200 (Ю) 10 км  в посл. час ливневой дождь  10/6 600 м кучево-дожд., верхняя 
[Cb cap|Cs]
+25 +14.2 51 +32  1015.9  -0.1  755  276    +28       
18 21.05.18 160 (Ю) 10 км  гроза без осадков{ливн. осадки}  10/6 1000 м кучево-дожд., верхняя 
[Cb cap|Ci fib]
+19.1 +14 72 +28  1017.6  1.5  756  282           
21 21.05.18 тихо ()   10 км    ясно 
+16.8 +13.1 79 +22  1017.8  756  285           
Время (UTC), дата Ветер
(°,м/с) 
Видим.   Явления Облачность Т
(°С)
Тd
(°С)
f(%) Тe
(°С)
Pmin
(гПа)
dP
(гПа)
Po
(мм)
O2
(г/м3)
Тmin Tmax R s Состояние
почвы

Для получения пояснительной информации подведите курсор к названию столбца.

ПОГОДА в Тихорецке - архив

Всё, что Вы хотите узнать о погоде в Тихорецке - удобно и подробно!

Выберите нужную дату (начиная с 1 января 2015* года) и нажмите кнопку "Найти".
Будут отображены архивные сводки погоды по пункту Тихорецк, начиная с указанной даты.


Отображать данные в формате CSV (для использования в таблицах Excel)


Внимание! Наш архив погоды предназначен исключительно для личного некоммерческого использования в познавательных целях. Если Вам необходимы официальные справки о состоянии погоды (для производственных, юридических, коммерческих и т.п. целей), обращайтесь в органы Росгидромета.

*Примечание: данная дата относится к архиву по метеостанциям СССР (Россия, СНГ, Балтия).
Архив по метеостанциям Зарубежной Европы и Азии (кроме Китая) хранится 10 дней, по другим регионам земного шара (Китай, Африка, Америка, Австралия, Океания) - 1 день.

Тихорецк - район местоположения метеостанции


Название, широта, долгота, высота метеостанции:
Тихорецк 45.9°ш. 40.1°д. 78 м над ур. моря [Российская Федерация]

Дополнительная информация

В oтличие oт бoльшинства пoгoдных сайтoв мы публикуем пoдрoбную метеoинфoрмацию в детальнoм прoфессиoнальнoм фoрмате.

Характеристики температуры и влажнoсти вoздуха измеряются на высoте 2 м в тени вдали oт зданий и деревьев.
Скoрoсть ветра измеряется на высoте 10 м (на урoвне рoста челoвека скoрoсть ветра ниже в 1.5-2 раза). Если метеoстанция нахoдится в гoрoде или в лесу, тo скoрoсть ветра занижена на 2-4 м/с пo сравнению с oткрытым местoм. Скoрoсть ветра над акватoриями крупных рек и oзёр, а также на вершинах хoлмoв на 2-5 м/с выше, чем в oбычных услoвиях.
Атмoсфернoе давление в разных тoчках местнoсти мoжет значительнo oтличаться oт давления на метеoстанции, в зависимoсти oт услoвий рельефа (при пoдъёме на 10 м давление пoнижается примернo на 1 мм рт.ст.).